GFSNE_sfc_thetae_273.txt.gz
Theta_e
343 345 342 343 346 345 343 339 336 328 329 335 335 340 343 345 348 347 348 349 348 347 346 346 348 350 352 354 355 354 355 354 353 351 350 353 350 354
343 340 342 340 339 344 344 343 341 337 331 337 338 341 343 347 347 345 345 346 346 345 345 343 345 347 349 351 351 350 350 351 351 350 348 348 348 349
339 341 340 341 339 343 344 343 343 340 335 339 339 340 341 343 347 347 345 343 342 343 343 342 341 343 345 346 347 347 347 348 348 348 348 347 347 348
336 338 339 342 341 341 340 341 340 341 339 336 338 338 341 342 343 343 345 346 344 344 341 340 339 339 340 340 340 341 341 342 343 343 345 346 346 347
332 333 336 337 338 339 338 338 337 339 339 337 336 338 340 340 339 340 340 342 347 346 339 338 337 337 336 336 335 335 334 335 336 337 338 340 343 345
326 330 333 335 337 336 337 337 335 334 334 335 334 334 336 339 340 337 336 341 340 346 346 341 340 338 336 333 333 333 329 327 327 329 331 332 336 339
320 324 332 336 340 339 337 336 334 333 332 330 329 331 333 334 335 338 338 336 338 340 338 337 336 337 337 335 337 337 331 328 326 325 325 326 328 331
316 320 328 335 335 337 337 338 337 334 331 329 329 329 331 333 336 335 335 333 330 340 336 336 340 337 341 343 339 336 332 330 327 325 324 324 324 326
315 319 325 333 333 331 333 334 335 336 336 333 330 329 330 333 333 332 333 332 332 337 337 333 340 338 342 344 336 334 331 329 327 325 324 323 323 323
319 325 327 326 327 329 329 331 332 333 333 335 337 336 335 336 334 335 333 333 336 338 340 333 337 337 341 344 337 334 331 328 326 324 322 321 318 317
313 317 320 326 325 323 322 323 325 329 332 330 332 333 333 333 333 332 333 332 328 332 338 336 335 334 336 337 341 334 330 325 323 323 322 321 318 316
308 312 317 320 319 316 316 318 318 322 326 327 329 330 330 331 332 332 331 330 330 326 334 334 332 333 325 329 337 341 341 322 318 319 319 320 317 324
307 309 311 314 313 311 312 315 320 322 323 322 325 327 328 328 329 330 331 333 329 330 334 334 329 328 327 328 331 335 341 336 337 327 314 315 314 320
307 309 311 312 309 310 311 315 317 319 322 319 320 322 324 325 328 331 332 332 334 333 334 336 331 330 328 326 326 329 333 337 337 336 335 318 310 311
308 310 311 310 311 314 316 317 319 317 317 317 318 321 323 326 328 326 331 331 333 335 337 334 333 332 330 328 327 327 327 331 334 336 337 333 329 320
307 308 310 311 312 312 313 314 315 318 321 321 319 321 323 324 322 323 321 322 322 322 330 334 335 333 331 332 332 332 328 328 330 333 334 334 333 329
304 307 307 307 307 307 308 310 313 314 313 316 318 320 320 321 322 323 325 324 321 320 320 323 335 335 335 333 331 333 333 331 332 330 331 329 333 336
301 303 304 305 305 306 304 304 306 307 307 309 311 314 319 321 321 320 323 323 323 321 320 321 323 329 331 334 336 333 333 333 334 329 328 329 330 334
297 300 301 302 303 305 303 303 302 303 304 304 306 308 310 313 317 319 319 320 320 321 323 324 322 323 321 320 327 328 333 334 330 329 330 331 330 331
295 296 299 300 301 301 303 301 301 300 300 300 301 303 305 307 310 313 317 320 320 321 321 322 323 323 322 321 322 325 318 333 331 330 330 331 332 327
295 296 297 297 299 299 300 301 301 300 299 298 298 298 300 303 305 309 311 309 312 319 320 320 323 323 327 323 321 323 325 315 327 332 327 327 326 327
297 297 298 297 298 299 299 299 299 300 298 297 296 297 297 299 302 305 308 310 313 315 317 323 324 323 321 322 321 322 321 323 316 317 319 324 325 324
299 299 299 299 299 299 299 298 298 299 298 296 296 295 296 296 298 303 306 309 312 313 314 313 316 323 322 322 320 322 318 321 322 321 324 320 318 317

GFSNE_sfc_thetae_276.txt.gz
Theta_e
344 346 346 348 347 346 345 344 339 333 335 342 343 349 348 350 352 353 354 350 346 347 346 346 347 350 352 353 354 355 355 354 353 352 353 353 354 356
346 346 345 345 344 346 347 345 343 340 334 342 342 348 351 350 352 353 351 347 346 345 344 343 344 347 349 350 350 351 351 351 351 350 350 348 349 348
341 343 342 345 343 342 343 344 342 342 335 342 344 349 346 347 350 354 353 352 351 342 343 342 341 343 345 346 346 347 348 348 348 348 349 348 347 347
332 334 338 342 341 342 343 343 342 345 340 337 340 343 343 346 347 349 349 348 352 345 340 340 339 339 339 340 340 341 341 342 343 344 345 346 347 346
324 326 330 334 338 342 342 339 339 341 342 339 339 345 343 346 346 347 348 350 346 345 339 338 338 337 336 335 335 335 334 335 336 336 338 340 343 345
322 323 325 328 334 338 340 342 342 340 339 336 335 336 342 343 345 343 344 346 345 347 347 342 341 339 336 334 333 333 329 328 329 330 331 332 335 339
321 321 323 327 332 337 339 340 340 339 339 336 333 337 339 339 340 343 341 345 345 348 348 347 347 345 344 337 341 337 332 329 327 326 325 326 327 330
319 321 323 328 332 335 334 335 337 338 338 337 337 335 338 339 342 342 342 339 337 347 344 341 346 343 345 345 338 335 331 329 327 326 324 323 323 326
316 318 323 326 330 329 330 331 333 333 336 340 337 338 338 340 341 339 341 341 339 345 343 340 344 343 347 345 335 332 330 328 327 326 325 323 322 322
311 313 317 319 325 323 323 325 328 332 335 337 339 340 342 344 343 342 341 342 344 344 347 337 344 343 348 349 337 333 331 328 327 325 323 321 318 317
311 312 314 316 317 317 316 318 322 325 329 329 329 330 332 333 338 341 335 335 333 336 345 342 345 342 346 347 349 334 330 326 324 323 322 320 315 314
309 311 313 314 315 314 312 313 315 321 326 328 330 332 332 334 332 339 340 334 334 333 343 340 342 344 336 342 345 349 352 324 319 318 319 319 315 328
308 309 312 313 312 311 312 314 316 320 321 324 326 328 330 333 334 335 338 338 336 334 342 345 342 341 341 337 340 346 350 346 344 330 314 315 315 324
307 309 311 310 309 311 313 315 315 320 322 323 323 323 327 330 334 335 335 338 342 341 344 343 340 339 340 338 337 341 344 348 349 346 343 317 311 313
309 310 311 309 309 311 312 313 315 315 317 319 320 323 326 331 332 333 337 336 337 337 339 341 340 341 338 339 338 340 339 342 346 346 346 337 330 324
308 308 310 311 311 309 308 309 309 309 309 308 312 316 322 327 327 331 329 331 329 332 336 340 342 340 331 337 340 335 339 336 342 343 344 345 342 334
306 307 306 306 306 306 305 305 305 304 303 305 306 309 311 316 322 328 329 329 326 327 329 332 339 341 341 340 334 335 336 338 339 341 341 340 342 341
304 303 303 304 304 304 303 303 303 302 302 302 302 304 305 307 311 318 325 325 325 327 328 329 330 333 333 334 336 333 335 336 338 342 340 338 337 342
303 303 302 303 303 305 305 304 302 302 302 301 300 301 301 303 305 310 314 319 320 322 322 329 329 328 325 322 331 328 334 335 340 336 335 334 336 339
303 303 303 303 304 304 305 305 304 304 302 299 299 299 299 299 301 304 308 310 313 315 321 325 323 323 322 323 325 331 316 338 339 338 336 335 337 328
304 304 305 304 304 304 305 305 305 304 303 301 299 298 298 297 297 300 303 305 307 313 314 317 322 322 327 329 324 324 331 314 328 337 340 336 334 333
306 305 306 305 305 305 305 305 305 305 304 302 300 299 297 297 296 297 301 304 307 311 312 315 319 321 323 323 320 320 325 333 322 317 320 326 336 329
307 306 306 306 306 305 305 305 305 305 304 302 300 298 298 297 296 297 300 303 306 309 310 309 314 317 316 316 318 320 322 327 330 331 331 319 317 316

GFSNE_sfc_thetae_279.txt.gz
Theta_e
350 349 349 350 352 352 347 350 345 335 337 344 346 355 355 356 357 357 357 350 347 347 345 345 347 349 351 353 353 354 356 355 354 354 354 355 356 358
349 352 351 351 351 352 353 349 347 339 336 345 346 351 354 352 356 358 358 352 348 345 343 343 344 346 348 350 350 350 351 352 351 350 350 351 351 352
337 342 344 346 346 347 349 349 346 345 338 341 346 350 353 354 355 357 357 356 355 344 343 342 341 342 344 346 346 346 348 348 348 348 349 348 348 349
330 331 335 338 342 345 345 346 346 349 344 340 347 348 350 353 355 355 354 353 354 347 341 340 339 339 339 339 340 341 341 342 344 344 345 346 347 347
330 330 329 331 334 339 342 343 343 345 347 344 342 350 350 350 346 347 348 353 353 348 338 338 338 337 336 335 335 334 334 335 336 336 338 340 343 345
326 325 329 329 329 333 336 341 344 344 342 341 340 340 342 347 346 342 343 350 352 351 347 343 343 339 336 334 333 333 329 329 329 329 331 333 336 339
325 327 329 331 330 332 335 336 339 341 343 343 339 339 339 340 341 343 346 350 355 359 349 350 352 348 349 336 343 337 331 329 327 326 326 327 328 331
321 323 326 329 329 329 328 329 332 333 334 339 340 339 340 342 341 341 338 337 335 348 350 346 351 348 351 348 341 337 332 330 327 326 324 324 325 325
318 318 320 323 324 320 323 326 332 331 333 336 335 340 344 345 349 343 341 340 339 343 350 343 350 348 350 347 336 333 332 329 328 327 326 324 323 322
316 314 314 315 318 318 319 323 328 332 334 335 333 337 344 348 349 348 344 345 345 345 354 340 346 346 349 349 336 333 329 327 326 324 323 321 319 317
315 315 316 316 315 316 317 316 322 327 328 328 328 328 328 329 334 343 342 339 335 336 343 343 343 344 347 346 348 334 329 325 323 323 322 320 316 314
317 317 316 314 313 313 315 316 315 320 324 328 330 331 332 337 332 337 340 339 336 332 341 338 340 346 340 348 348 349 351 324 321 319 320 319 314 338
312 313 313 312 311 310 312 313 313 317 321 323 329 331 332 334 337 341 338 337 339 337 338 349 338 348 344 340 343 347 348 347 350 340 313 313 312 328
310 311 313 310 308 309 311 310 311 312 313 313 317 321 325 329 334 338 341 338 340 344 349 349 343 342 343 338 336 347 348 348 350 350 351 323 311 313
312 311 310 308 308 310 310 309 309 309 307 306 307 310 313 320 325 334 338 341 341 342 343 344 344 345 344 339 339 342 341 347 348 346 348 344 343 335
311 312 311 310 310 310 311 310 308 309 305 305 304 307 310 313 313 318 326 333 330 334 342 341 340 344 341 340 341 338 339 336 342 343 344 347 348 347
307 311 310 310 309 309 309 310 309 308 307 307 305 306 303 306 308 311 314 320 324 329 335 341 343 345 347 345 336 334 333 332 338 341 343 338 341 345
309 308 308 310 309 309 309 309 310 309 308 307 303 304 304 302 303 308 310 312 315 324 331 336 337 330 337 340 336 334 336 333 333 338 342 337 336 340
309 308 307 308 308 309 309 310 309 310 312 309 307 304 302 301 302 302 305 307 308 313 318 326 325 326 325 325 339 326 337 335 337 338 339 337 336 336
310 309 308 308 307 307 307 307 308 308 309 309 307 305 304 300 299 300 301 303 304 307 312 319 325 325 320 321 326 335 317 338 336 335 334 339 339 328
310 309 310 309 308 308 307 307 308 307 308 307 305 304 304 303 303 301 298 300 303 306 309 311 315 317 323 328 323 323 331 315 327 337 339 338 335 337
311 311 311 310 309 309 308 308 307 307 306 305 305 304 304 303 302 304 300 298 303 306 308 311 313 317 319 319 316 319 326 330 324 317 319 324 336 330
311 311 310 308 308 309 309 308 307 307 306 305 305 304 303 302 302 302 304 301 302 305 308 307 309 313 314 314 311 313 321 322 325 327 333 319 317 318

GFSNE_sfc_thetae_285.txt.gz
Theta_e
350 351 352 354 355 355 356 355 345 335 337 349 340 346 353 357 358 357 355 351 350 348 346 347 348 349 351 354 356 355 356 356 356 357 357 357 358 360
339 341 343 347 346 349 353 355 355 345 335 345 349 349 348 351 356 357 358 355 349 345 345 344 345 347 348 350 351 351 351 352 353 353 353 354 354 356
337 337 337 342 336 338 346 347 346 350 339 346 347 353 352 351 353 357 356 358 356 346 346 345 343 344 345 346 347 347 348 348 349 350 351 351 352 353
334 334 333 334 338 341 334 344 344 345 342 339 348 347 354 356 355 356 359 357 355 351 343 344 342 340 340 341 341 341 342 342 343 345 347 348 349 350
332 331 331 331 332 333 336 334 334 338 344 343 341 347 348 353 355 355 357 348 351 350 341 339 340 339 337 336 336 335 335 335 336 337 339 341 344 346
329 330 331 329 327 327 329 330 331 331 336 342 341 342 348 350 348 344 347 352 348 352 350 346 344 341 338 335 335 334 330 329 329 330 332 333 336 339
328 327 327 326 325 323 323 323 327 328 329 329 331 339 339 341 345 347 342 347 348 351 349 348 348 351 350 337 342 338 332 329 327 327 327 327 329 331
322 322 324 323 323 322 322 324 326 327 329 328 328 330 337 341 344 343 341 343 335 352 352 343 347 344 348 354 341 336 332 330 328 327 325 325 326 327
324 320 319 319 320 320 322 325 327 328 330 329 327 331 332 336 338 336 340 339 337 346 351 343 345 349 355 348 334 331 332 330 328 327 326 325 324 323
323 322 320 320 316 317 320 321 322 326 327 326 328 330 331 334 334 335 337 339 340 336 343 338 344 339 348 345 333 331 334 332 328 325 323 322 320 319
321 321 317 317 314 313 319 318 319 321 323 325 326 326 327 330 331 332 329 327 327 335 341 337 339 336 341 344 344 335 335 329 325 323 323 320 317 316
319 319 314 314 313 313 315 313 313 316 320 322 323 325 327 328 329 337 330 327 328 328 336 340 342 337 331 339 345 344 345 326 322 321 321 320 316 327
313 314 315 312 311 310 311 315 312 314 318 318 318 320 322 322 324 326 332 327 324 328 333 337 338 341 339 337 339 344 352 351 341 332 316 317 313 327
314 314 315 310 309 310 311 310 312 313 314 313 312 313 314 316 318 321 326 327 327 331 337 340 336 337 338 337 337 342 345 353 345 353 348 329 314 315
315 313 313 311 310 313 313 313 314 315 314 312 312 312 312 313 321 321 323 325 328 331 334 338 334 340 339 333 337 338 340 342 358 345 344 348 340 333
315 316 317 315 313 316 314 315 314 314 312 312 311 313 314 313 311 312 313 315 315 317 326 331 334 327 329 334 340 340 340 340 345 349 346 349 347 347
308 315 316 315 314 313 313 313 313 312 311 311 311 311 311 311 310 311 311 311 311 310 313 319 326 328 333 331 327 340 340 340 341 346 349 343 346 351
309 313 313 313 312 312 312 312 313 313 312 311 310 310 309 309 309 309 310 309 308 309 310 314 316 315 318 326 330 332 337 342 341 345 349 343 344 345
310 313 312 314 312 312 312 311 311 313 318 311 310 310 309 309 308 307 308 307 308 309 309 312 311 308 305 306 319 321 323 330 338 337 342 344 336 337
312 314 313 314 313 315 313 312 312 312 312 314 312 310 309 308 307 306 306 307 306 306 308 309 311 310 306 306 308 315 314 325 329 331 337 336 336 333
316 314 315 314 313 313 314 313 313 312 311 312 311 309 308 307 306 306 306 303 304 306 306 308 309 313 311 315 311 312 316 315 318 329 331 330 328 330
316 315 316 314 317 316 314 313 312 310 310 310 309 308 307 306 305 305 305 305 305 306 306 308 314 315 310 306 306 307 312 314 318 317 316 321 325 322
317 317 316 315 315 314 315 314 310 310 310 308 307 306 304 303 305 305 305 305 305 305 306 306 308 313 312 309 307 308 307 311 311 315 320 319 316 316

GFSNE_sfc_thetae_288.txt.gz
Theta_e
342 341 343 346 346 345 344 344 339 329 334 343 344 349 343 346 344 342 339 348 350 349 348 349 350 351 353 354 355 355 356 355 355 355 355 357 359 360
335 336 336 339 337 342 344 344 342 338 332 342 344 346 348 348 347 346 345 345 349 346 345 344 346 348 349 350 350 351 352 352 352 352 352 353 354 356
335 334 334 334 334 336 337 339 341 339 333 338 345 346 347 347 347 348 350 351 349 347 344 343 342 343 345 346 345 347 348 348 349 349 350 351 351 352
331 329 329 332 330 330 330 331 332 335 335 332 338 342 341 345 348 347 348 351 351 348 343 342 341 340 340 341 341 342 341 342 343 344 346 347 349 349
328 328 329 327 325 325 325 325 327 329 329 330 331 340 341 344 343 346 346 350 353 346 340 340 340 338 337 336 336 335 335 336 336 336 338 340 344 346
325 325 326 323 322 320 320 321 322 323 326 326 327 331 338 340 341 339 339 344 344 348 345 344 341 340 338 337 335 335 330 329 329 329 330 332 336 340
322 322 324 322 322 320 318 318 320 322 324 325 325 326 328 332 332 335 336 339 342 345 345 346 343 343 343 339 342 338 332 329 327 326 326 327 328 331
320 322 325 321 318 320 322 325 325 323 322 322 324 322 326 328 329 330 332 330 330 344 339 337 344 343 346 349 342 338 332 330 327 325 324 324 325 327
324 322 317 317 316 316 320 324 324 326 327 322 321 321 323 325 327 327 326 326 327 332 335 333 340 337 344 346 336 334 332 329 327 325 324 323 323 323
325 322 319 318 316 314 317 315 317 320 324 322 323 323 325 327 328 327 327 329 330 331 338 328 335 336 342 343 336 332 329 327 326 325 323 321 319 318
323 320 318 317 314 315 314 314 314 316 320 323 325 325 326 327 328 326 324 323 321 324 331 331 333 335 338 338 341 333 327 323 323 323 323 320 316 316
321 317 317 315 313 313 312 312 312 312 313 316 320 321 323 324 325 321 320 319 320 319 328 325 327 332 329 336 338 339 338 326 323 323 322 320 315 326
317 314 317 314 312 311 312 312 314 313 314 316 316 315 316 316 316 321 321 318 316 317 323 323 325 327 328 329 335 339 342 340 338 333 316 316 314 324
315 315 316 312 310 311 312 314 314 314 315 312 314 312 314 314 314 318 322 322 321 321 323 324 323 324 324 324 325 333 337 341 343 341 341 325 314 316
317 315 314 312 311 312 315 314 316 317 312 311 309 310 314 316 319 316 315 318 319 321 320 319 322 321 321 320 322 328 330 334 338 340 340 341 332 325
316 312 314 315 316 316 318 318 319 317 315 312 310 313 313 314 312 314 309 310 311 310 318 319 319 317 314 318 323 323 327 327 334 337 339 339 340 340
307 311 313 317 316 315 315 315 314 314 312 313 311 311 311 311 311 312 309 309 307 308 309 312 316 317 315 314 315 323 325 328 333 335 336 335 338 340
309 309 310 316 314 312 311 314 315 314 313 313 312 311 310 311 310 309 310 308 306 307 308 309 310 311 310 312 320 315 318 316 320 326 332 332 333 339
306 309 311 314 312 318 314 310 313 315 316 313 311 311 311 311 308 306 307 306 305 306 306 307 309 309 304 301 309 315 311 314 316 319 327 329 330 334
309 310 309 314 317 317 317 315 312 314 312 311 309 311 311 308 306 305 304 304 304 304 304 307 309 308 306 304 304 308 311 315 314 314 316 322 329 329
318 317 318 318 313 316 316 314 317 313 311 311 310 310 308 306 304 303 303 303 303 304 303 304 307 313 312 312 306 306 309 312 313 312 315 316 321 327
318 317 318 317 319 318 314 315 314 313 311 309 307 306 304 303 301 301 303 303 303 304 303 305 307 310 313 309 306 307 308 310 312 313 314 315 318 319
319 318 317 317 316 313 316 311 308 307 307 305 304 303 302 302 303 302 302 302 302 302 303 304 305 306 304 309 308 308 308 308 309 310 311 315 315 314

GFSNE_sfc_thetae_291.txt.gz
Theta_e
328 327 329 331 335 335 335 334 329 327 329 336 336 343 342 341 343 341 339 341 339 345 341 344 346 349 353 353 354 354 354 356 355 356 356 357 357 359
327 325 325 326 328 329 329 331 333 330 325 333 334 337 341 346 346 344 342 342 342 343 339 340 344 346 349 350 351 351 351 352 352 351 352 352 353 355
327 327 327 326 323 323 323 325 325 326 323 327 333 338 338 340 344 346 345 343 345 343 339 340 342 343 343 344 345 347 348 349 349 349 350 350 351 352
324 323 320 322 318 319 318 317 319 321 319 318 324 328 333 338 338 341 344 348 346 343 339 340 341 339 339 339 340 341 341 342 343 343 345 347 348 349
318 319 316 316 313 313 314 315 316 318 319 318 319 324 330 335 336 338 341 342 345 344 339 341 340 340 338 336 335 334 334 335 335 336 338 340 343 346
315 317 315 313 312 314 316 316 318 318 317 318 320 321 326 328 332 329 329 336 337 345 344 343 342 340 339 335 334 334 330 328 328 329 331 332 335 339
314 315 315 315 320 320 317 316 319 319 315 316 315 317 319 321 321 323 324 328 329 337 335 338 340 342 341 336 338 337 332 330 326 326 326 326 328 331
313 311 312 314 312 317 320 321 321 319 318 316 318 316 315 317 319 321 321 322 320 333 328 329 338 337 343 344 339 336 334 332 329 326 324 323 324 326
313 310 312 314 310 308 313 316 316 321 322 315 310 312 316 318 318 317 318 319 321 327 326 325 334 333 336 341 336 332 331 329 328 326 325 323 323 322
312 309 307 307 307 308 307 308 309 309 310 313 312 314 319 319 321 322 318 319 320 323 326 321 328 329 335 340 336 333 331 328 327 325 323 321 319 318
311 308 307 305 314 315 304 304 305 308 314 317 318 323 323 324 321 313 312 310 311 314 321 316 322 323 329 332 338 333 330 327 323 323 323 320 316 315
308 306 315 310 313 312 304 303 303 305 306 308 310 310 313 312 320 313 309 307 309 311 317 315 316 321 319 327 330 334 337 325 320 319 319 320 315 324
307 306 307 315 312 311 311 304 304 308 310 306 306 306 308 308 307 308 312 310 307 307 314 316 317 318 319 320 325 327 331 335 337 332 315 315 315 321
306 307 306 311 310 310 311 312 314 314 307 304 302 302 304 305 308 309 306 306 311 312 313 312 312 315 312 313 314 320 323 329 334 334 336 324 313 314
307 311 312 309 309 311 315 315 314 310 306 303 301 302 304 305 307 306 306 305 306 309 315 311 310 311 313 308 309 312 316 323 327 330 331 335 332 323
312 303 309 312 314 314 312 309 308 307 306 304 303 305 304 305 303 304 301 301 302 303 307 310 309 309 306 307 307 308 315 319 321 320 323 331 335 333
301 301 302 303 307 306 305 306 305 305 305 304 304 304 304 307 306 303 301 301 299 298 301 304 307 310 309 306 304 312 313 314 314 317 317 321 329 336
300 300 300 304 307 309 308 305 305 308 306 305 303 302 303 304 306 301 300 299 297 298 299 300 302 303 304 304 313 304 308 307 311 314 314 315 322 330
297 299 302 307 308 308 309 308 305 305 304 304 302 302 303 304 300 299 298 297 297 297 298 299 299 301 299 298 302 311 303 305 310 310 311 312 315 317
299 301 303 305 307 309 309 306 305 305 304 304 303 303 302 298 297 296 296 295 297 298 297 298 298 299 299 300 300 304 308 306 305 307 307 310 315 319
306 308 309 310 311 311 310 307 306 308 304 302 300 298 297 296 295 295 296 299 299 297 297 296 299 308 305 304 301 302 305 308 308 307 306 307 310 315
309 310 311 310 310 311 305 305 303 300 299 298 297 296 296 296 296 296 296 296 296 296 297 299 301 300 302 302 299 300 303 306 308 310 312 312 311 310
307 306 307 307 306 303 300 299 299 299 297 296 295 295 296 295 296 296 296 296 297 297 297 297 299 297 297 297 299 299 301 304 303 304 308 312 312 313